Terug naar catalogus

METEOR 2-8 DEB

ActiefPO
NORAD 36323·DEBRIS·🇷🇺 Russia

Gelanceerd Mar 25, 1982 vanaf Plesetsk Cosmodrome

Loading…

Volgende Passages (komende 24 uur)

TLE

VersSource: Space-Track

Epoch: Sep 11, 2026, 10:07 UTC

1 36323U 82025H   26254.42206693  .00002977  00000-0  11779-2 0  9997
2 36323  82.5308 147.6081 0014268 159.7524 200.4230 14.28637466910857

Volg METEOR 2-8 DEB in realtime met AllMySat

Download on the App Store